www.pogodaiklimat.ru
ПОГОДА в Кресин-Крамолине
Время
(UTC), дата
04 17.01
05 17.01
06 17.01
07 17.01
08 17.01
09 17.01
10 17.01
11 17.01
12 17.01
13 17.01
14 17.01
15 17.01
16 17.01
17 17.01
18 17.01
19 17.01
20 17.01
21 17.01
22 17.01
23 17.01
00 18.01
01 18.01
02 18.01
03 18.01
04 18.01
05 18.01
06 18.01
07 18.01
08 18.01
09 18.01
10 18.01
11 18.01
12 18.01
13 18.01
14 18.01
15 18.01
16 18.01
17 18.01
18 18.01
19 18.01
20 18.01
21 18.01
22 18.01
23 18.01
00 19.01
01 19.01
02 19.01
03 19.01
04 19.01
05 19.01
06 19.01
07 19.01
08 19.01
09 19.01
10 19.01
11 19.01
12 19.01
13 19.01
14 19.01
15 19.01
16 19.01
17 19.01
18 19.01
19 19.01
20 19.01
21 19.01
22 19.01
23 19.01
00 20.01
01 20.01
02 20.01
03 20.01
04 20.01
05 20.01
06 20.01
07 20.01
08 20.01
09 20.01
10 20.01
11 20.01
12 20.01
13 20.01
14 20.01
15 20.01
16 20.01
17 20.01
18 20.01
19 20.01
20 20.01
21 20.01
22 20.01
23 20.01
00 21.01
01 21.01
02 21.01
03 21.01
04 21.01
05 21.01
06 21.01
07 21.01
08 21.01
09 21.01
10 21.01
11 21.01
12 21.01
13 21.01
14 21.01
15 21.01
16 21.01
17 21.01
18 21.01
19 21.01
20 21.01
21 21.01
22 21.01
23 21.01
00 22.01
01 22.01
02 22.01
03 22.01
04 22.01
05 22.01
06 22.01
07 22.01
08 22.01
09 22.01
10 22.01
11 22.01
12 22.01
13 22.01
14 22.01
15 22.01
16 22.01
17 22.01
18 22.01
19 22.01
20 22.01
21 22.01
22 22.01
23 22.01
00 23.01
01 23.01
02 23.01
03 23.01
04 23.01
05 23.01
06 23.01
07 23.01
08 23.01
09 23.01
10 23.01
11 23.01
12 23.01
13 23.01
14 23.01
15 23.01
16 23.01
17 23.01
18 23.01
19 23.01
20 23.01
21 23.01
22 23.01
23 23.01
00 24.01
01 24.01
02 24.01
03 24.01
04 24.01
Ветер
(напр.,м/с)
Видим. Явления Облачность Т
(С)
Тd
(С)
f
(%)
Тe
(С)
Тes
(С)
Комфортность P
(гПа)
Po
(гПа)
Тmin
(С)
Tmax
(С)
R
(мм)
R24
(мм)
S
(см)
В 3 4400 м дымка н/о -0.7 -1.2 96 -6 -6 1027.7 961.8
В 3 5000 м дымка н/о -0.7 -1.5 94 -6 -6 1027.2 961.3
ЮВ 5 11 км 8/0
[Cs]
+1.1 -0.4 90 -5 -5 1026.1 960.7 -1.1 0.1
ЮВ 5
{12}
19 км 4/0
[Cs]
+1.9 -0.2 86 -4 -4 1025.7 960.5
ЮВ 6
{14}
25 км 3/1 630 м
[Cu hum Cs]
+2.6 -0.2 82 -3 -3 1025.3 960.3
ЮВ 5-10
{14}
30 км ясно +3.7 -1.0 71 -1 -0 1024.5 959.8 0.1
ЮВ 9
{13}
35 км ясно +4.2 -0.6 71 -2 -2 1023.7 959.2
ЮВ 7-12
{13}
35 км ясно +4.8 -0.9 67 -0 0 1022.7 958.4
ЮВ 6-11
{14}
35 км 5/0
[Ci fib]
+4.8 0.0 71 -0 +1 1022.1 957.8 0.1
ЮВ 5 22 км 6/0
[Ci fib]
+3.8 -0.3 75 -1 -0 1021.5 957.0
ЮВ 5 13 км 4/0
[Ci fib]
+1.7 -0.9 83 -4 -4 1021.8 956.8
ЮВ 5 9000 м дымка 9/3 270 м
[Cu hum Ci fib]
-0.1 -1.7 89 -6 -6 1022.5 957.1 0.1
ЮВ 4 10 км н/о -0.4 -1.8 90 -6 -6 1023.0 957.5
ЮВ 4 12 км 10/10 180 м
[St]
-1.0 -2.1 92 -7 -7 1023.2 957.5
ЮВ 4 12 км 10/10 180 м
[St]
-1.2 -2.2 93 -7 -7 1023.4 957.7 +5.0 0.1
ЮВ 4 9000 м дымка 10/10 180 м
[St]
-1.3 -2.1 94 -7 -7 1023.7 957.9
ЮВ 3 9000 м дымка 10/10 150 м
[St]
-1.4 -2.1 95 -7 -7 1023.7 957.9
нст 2 7000 м дымка н/о -1.7 -2.2 96 -6 -6 1024.3 958.4 0.1
ЮВ 3 9000 м дымка н/о -1.3 -2.1 94 -6 -6 1024.1 958.3
ЮВ 2 11 км н/о -1.0 -2.0 93 -5 -5 1024.0 958.3
ЮВ 3 13 км {дымка} н/о -0.8 -2.0 92 -6 -6 1024.1 958.4 0.1
ЮВ 3 17 км н/о -0.4 -1.9 90 -5 -5 1024.3 958.7
16 км н/о -0.1 -1.7 89 1024.3 958.8
Ю 3 16 км н/о +0.1 -1.5 89 -5 -5 1024.4 958.9 0.1
Ю 2 3000 м дождь н/о +0.1 -0.4 96 -4 -4 1024.7 959.2
Ю 3 4000 м слаб. дождь н/о +0.6 +0.2 97 -4 -4 1024.7 959.3
нст 1 1200 м слаб. дождь 10/10 210 м
[Frnb]
+0.2 +0.1 99 -2 -2 1025.1 959.6 -1.7 2 1.9
ЮЗ 2 3100 м слаб. дождь 10/10 210 м
[Frnb]
+1.3 +1.0 98 -2 -2 1025.4 960.1
900 м слаб. дождь {туман} 10/10 420 м
[Frnb]
+0.8 +0.7 99 1025.8 960.4
З 1 1400 м слаб. дождь 10/10 270 м
[Frnb]
+1.1 +1.0 99 -1 -1 1026.4 961.0 0.1
400 м слаб. дождь 10/10 360 м
[Frnb]
+1.2 +1.2 100 1026.1 960.8
200 м слаб. дождь 10/10 210 м
[Frnb]
+1.0 +1.0 100 1026.2 960.8
С 3 300 м слаб. дождь ?/? +1.3 +1.3 100 -3 -3 1026.2 960.9 2 0.1
СЗ 3 4400 м слаб. дождь 10/10 60 м
[Frnb]
+2.1 +2.0 99 -2 -2 1026.0 960.9
СЗ 2 6000 м дымка 10/10 400 м
[St]
+2.1 +1.8 98 -1 -1 1026.1 961.0
СЗ 2 3900 м дымка {дождь, туман} 10/4 800 м
[Sc As op]
+1.7 +1.3 97 -2 -2 1026.3 961.1 0.1
З 3 4700 м дымка н/о +1.4 +1.0 97 -3 -3 1026.6 961.3
З 2 6000 м дымка н/о +1.2 +0.8 97 -2 -2 1026.9 961.5
З 3 8000 м дымка 10/10 900 м
[Sc]
+1.3 +0.8 96 -3 -3 1027.3 961.9 +2.4 2 0.1
З 3 11 км 10/4 1300 м
[Sc Ac As]
+1.2 +0.7 96 -3 -3 1027.4 962.0
З 3 16 км 10/0
[Ac As]
+1.3 +0.4 94 -3 -3 1027.5 962.1
З 3 28 км {дымка} н/о +1.2 +0.1 92 -3 -3 1027.4 962.0 0.1
З 4 25 км н/о +1.0 -0.2 92 -4 -4 1027.6 962.1
З 3 28 км н/о +0.9 -0.4 91 -4 -4 1027.7 962.2
З 3 35 км {дымка} н/о +0.8 -0.5 91 -4 -4 1027.8 962.3 0.1
З 4 35 км н/о +0.9 -0.7 89 -4 -4 1028.3 962.7
З 3 30 км н/о +0.4 -0.7 92 -4 -4 1028.5 962.8
З 3 25 км н/о +0.2 -0.6 94 -5 -5 1028.7 963.0 0.1
З 3 15 км н/о 0.0 -0.5 96 -5 -5 1029.2 963.4
23 км н/о +0.3 -0.5 94 1029.7 963.9
СЗ 2 8000 м слаб. снег 10/10 240 м
[Frnb]
+0.3 -0.3 96 -3 -3 1030.2 964.4 0.0 0.0 2.2 <0.5
СЗ 2 1500 м слаб. снег 10/10 240 м
[Frnb]
+0.1 -0.1 99 -4 -4 1031.1 965.2
СЗ 4 11 км слаб. снег 10/10 540 м
[Sc]
+0.2 -0.2 97 -5 -5 1031.8 965.9
СЗ 3 9000 м дымка {снег} 10/10 630 м
[Sc]
+0.3 -0.3 96 -5 -5 1032.7 966.7 0.1
С 4 8000 м дымка 9/9 180 м
[St]
+0.2 -0.4 96 -5 -5 1033.4 967.4
СЗ 3 9000 м дымка 9/6 240 м
[St Ci fib]
+0.8 +0.1 95 -4 -3 1033.6 967.7
С 4 14 км {снег} 10/10 400 м
[Sc]
+0.4 -0.6 93 -5 -5 1034.2 968.2 0.4 0.1
СЗ 4 3600 м слаб. снег 10/10 270 м
[Frnb]
+0.5 -0.1 96 -5 -5 1034.5 968.5
СЗ 4 5000 м слаб. снег 10/10 240 м
[Frnb]
+0.5 -0.1 96 -5 -5 1035.2 969.1
СЗ 5 6000 м слаб. снег 10/10 240 м
[Frnb]
+0.4 +0.1 98 -6 -6 1035.9 969.8 0.1
СЗ 4 8000 м слаб. ливневой дождь н/о +0.5 0.0 96 -5 -5 1036.8 970.6
СЗ 4 11 км слаб. ливневой снег {дождь, дымка} н/о +0.7 0.0 95 -5 -5 1037.7 971.5
СЗ 5 3900 м слаб. снег 10/10 270 м
[Frnb]
+0.5 -0.1 96 -6 -6 1038.6 972.3 +1.1 1 0.1
СЗ 4 1300 м слаб. снег 10/10 240 м
[Frnb]
+0.3 0.0 98 -5 -5 1039.3 972.9
СЗ 4 2700 м слаб. снег 10/10 180 м
[Frnb]
+0.1 +0.1 100 -6 -6 1040.1 973.6
С 4 4400 м слаб. снег {дождь, дымка} н/о 0.0 0.0 100 -6 -6 1040.6 974.1 0.1
С 4 1800 м слаб. снег {дождь, дымка} н/о 0.0 0.0 100 -6 -6 1041.6 975.0
С 4 2800 м слаб. снег {дождь, дымка} н/о 0.0 0.0 100 -6 -6 1041.9 975.3
СЗ 3 1900 м слаб. ливневой снег {дождь} н/о 0.0 0.0 100 -5 -5 1042.6 975.9 2 0.1
СЗ 4 2300 м слаб. снег {дымка} н/о 0.0 0.0 100 -6 -6 1043.3 976.6
С 4 3300 м слаб. снег {дымка} н/о -0.1 -0.1 100 -6 -6 1043.7 976.9
С 4 2800 м слаб. снег {дымка} н/о -0.2 -0.2 100 -6 -6 1043.7 976.9 0.1
СЗ 3 4100 м слаб. снег {дымка} н/о -0.3 -0.3 100 -5 -5 1044.1 977.3
С 2 3600 м в посл. час снег {дождь} н/о -0.3 -0.3 100 -4 -4 1044.7 977.8
СЗ 3 6000 м в посл. час снег 10/10 90 м
[Frnb]
-0.3 -0.4 99 -5 -5 1045.4 978.5 -0.4 2 3.3 3
С 3 1400 м слаб. снег 10/10 90 м
[Frnb]
-0.4 -0.4 100 -5 -5 1046.3 979.3
С 3 3400 м слаб. снег 10/10 60 м
[Frnb]
-0.3 -0.4 99 -5 -5 1046.9 979.9
СЗ 2 5000 м слаб. снег 10/10 60 м
[Frnb]
0.0 -0.1 99 -4 -4 1047.5 980.5 0.1
СЗ 2 8000 м дымка 9/9 150 м
[St]
+0.6 -0.3 94 -3 -3 1047.8 980.9
10 км 9/9 120 м
[St]
-0.1 -0.9 94 1047.9 980.9
нст 1 14 км {снег} 9/9 240 м
[St]
+0.8 -1.4 85 -1 -1 1047.9 981.1 0.3 0.1
16 км 9/9 630 м
[Sc]
+0.9 -1.0 87 1047.7 980.9
С 2 27 км 9/9 630 м
[Sc]
+0.7 -1.6 85 -3 -3 1047.8 980.9
С 2 30 км 10/10 600 м
[Sc]
+0.5 -2.0 83 -3 -3 1047.5 980.6 0.1
СЗ 2 35 км н/о +0.5 -2.8 79 -3 -3 1047.5 980.6
З 2 30 км н/о +0.2 -2.4 83 -3 -3 1047.9 980.9
нст 2 29 км 10/10 540 м
[Sc]
+0.3 -3.1 78 -3 -3 1048.0 981.0 +2.1 0.3 0.1
З 3 24 км 10/10 600 м
[Sc]
-0.2 -2.9 82 -5 -5 1048.2 981.1
35 км 10/10 600 м
[Sc]
-0.1 -3.5 78 1048.2 981.1
ЮЗ 1 27 км н/о -0.5 -3.2 82 -2 -2 1048.2 981.0 0.1
ЮЗ 2 35 км н/о -0.6 -3.0 84 -4 -4 1048.0 980.8
СВ 1 30 км н/о -1.7 -3.6 87 -4 -4 1047.8 980.4
нст 1 16 км н/о -2.4 -3.3 94 -5 -5 1047.6 980.0 0.1
11 км н/о -3.8 -4.2 97 1047.7 979.8
ЮЗ 1 8000 м дымка н/о -4.0 -4.3 98 -7 -7 1047.3 979.3
ЮВ 1 9000 м дымка н/о -4.7 -5.0 98 -7 -7 1046.6 978.5 0.1
Ю 2 8000 м дымка {туман} н/о -4.8 -4.9 99 -9 -9 1046.0 977.9
3700 м дымка н/о -3.7 -4.0 98 1045.7 977.9
нст 1 1800 м дымка 10/10 30 м
[St]
-4.1 -4.4 98 -7 -7 1045.8 977.9 -5.0 0.3 2
Ю 3 800 м туман ?/? -4.5 -4.7 99 -10 -10 1045.5 977.5
Ю 2 2000 м дымка {туман} 10/10 30 м
[St]
-4.7 -5.0 98 -9 -9 1045.6 977.6
нст 1 1700 м дымка {туман} 10/10 30 м
[St]
-4.4 -4.6 99 -7 -7 1045.9 977.9 0.1
Ю 2 4500 м дымка 10/10 60 м
[St]
-4.0 -4.5 96 -8 -8 1045.9 978.0
Ю 3 5000 м дымка 10/10 60 м
[St]
-3.8 -4.2 97 -9 -9 1045.4 977.6
ЮЗ 3 5000 м дымка {туман} 10/10 60 м
[St]
-3.3 -3.7 97 -9 -9 1044.4 976.8 0.1
Ю 3 4800 м дымка 10/10 60 м
[St]
-2.8 -3.3 96 -8 -8 1043.4 976.0
5000 м дымка 10/10 90 м
[St]
-2.7 -3.2 96 1042.9 975.5
нст 1 6000 м дымка 10/10 120 м
[St]
-3.1 -3.6 96 -6 -6 1042.8 975.3 0.1
Ю 2 5000 м дымка н/о -3.4 -3.9 96 -8 -8 1042.0 974.5
ЮЗ 2 4700 м дымка н/о -3.5 -3.9 97 -8 -8 1042.1 974.6
нст 1 3400 м дымка 10/10 60 м
[St]
-4.2 -4.4 99 -7 -7 1042.1 974.4 -2.5 0.1
Ю 2 3600 м дымка 10/10 60 м
[St]
-4.4 -4.8 97 -9 -9 1041.7 974.0
2100 м дымка 10/10 60 м
[St]
-4.5 -4.8 98 1041.5 973.8
З 3 4400 м дымка н/о -4.8 -5.1 98 -10 -10 1041.1 973.3 0.1
Ю 3 3200 м дымка н/о -4.7 -5.2 96 -10 -10 1040.2 972.5
З 2 1300 м дымка н/о -5.4 -5.8 97 -10 -10 1039.9 972.1
ЮЗ 2 4800 м в посл. час туман {дымка} н/о -5.0 -5.3 98 -9 -9 1039.0 971.3 0.1
3500 м дымка н/о -5.4 -5.9 96 1038.3 970.6
З 3 2800 м дымка н/о -5.7 -6.2 96 -11 -11 1038.1 970.3
З 2 1500 м дымка н/о -5.8 -6.2 97 -10 -10 1037.4 969.6 0.1
600 м туман {дымка} н/о -5.6 -6.1 96 1036.8 969.1
2800 м в посл. час туман {дымка} н/о -5.3 -5.5 98 1036.4 968.8
З 2 3800 м дымка [диам. изморози 5 мм] 10/10 60 м
[St]
-5.5 -5.9 97 -10 -10 1036.1 968.5 -6.0 0.1 2
З 3 4600 м дымка 10/10 60 м
[St]
-5.5 -6.0 96 -11 -11 1036.3 968.7
ЮЗ 4 9000 м дымка 1/1 120 м
[St]
-5.2 -6.0 94 -12 -11 1035.6 968.1
ЮЗ 3 11 км [диам. изморози 3 мм] 1/0
[Ci fib]
-3.1 -4.3 91 -8 -7 1033.9 967.0 0.1
С 3 8000 м дымка 1/0
[Ci fib]
-3.4 -4.5 92 -9 -7 1035.4 968.3
СЗ 4 6000 м дымка 8/6 150 м
[St Ci fib]
-3.6 -4.4 94 -10 -9 1034.9 967.8
З 2 11 км 4/0
[Ci fib]
-1.0 -4.4 78 -5 -2 1033.5 967.1 0.1
СЗ 2 10 км 8/4 660 м
[Cu hum Ci sp]
-0.9 -3.6 82 -5 -4 1032.9 966.6
З 4 17 км 9/9 480 м
[St]
+0.3 -3.8 74 -5 -5 1032.4 966.4
З 4 16 км 10/10 420 м
[St]
+0.1 -3.3 78 -5 -5 1032.6 966.6 0.1
З 3 13 км н/о 0.0 -2.9 81 -5 -5 1033.1 967.0
З 3 12 км н/о -0.1 -2.4 84 -5 -5 1034.0 967.8
З 4 9000 м дымка 10/10 300 м
[St]
0.0 -1.9 87 -5 -5 1034.5 968.3 +0.6 0.1
СЗ 4 6000 м слаб. снег 10/10 270 м
[Frnb]
+0.1 -0.6 95 -6 -6 1035.2 969.0
СЗ 4 2800 м слаб. снег 10/10 210 м
[Frnb]
0.0 -0.7 95 -6 -6 1035.6 969.4
СЗ 3 10 км в посл. час снег {ливн. осадки} н/о +0.2 -0.7 94 -5 -5 1036.0 969.8 0.1
З 3 15 км в посл. час дождь {ливн. осадки} н/о +0.4 -0.7 92 -4 -4 1036.3 970.1
СЗ 3 20 км н/о +0.5 -1.0 90 -4 -4 1036.4 970.2
СЗ 2 21 км {ливн. осадки, снег} н/о +0.6 -1.1 88 -3 -3 1036.4 970.3 0.2 0.1
СЗ 3 19 км н/о +0.4 -1.4 88 -4 -4 1036.5 970.3
З 2 18 км н/о +0.1 -1.6 88 -4 -4 1036.6 970.3
нст 1 18 км н/о -0.1 -1.8 88 -2 -2 1036.4 970.1 0.1
12 км н/о -0.3 -1.5 92 1036.7 970.3
9000 м дымка н/о -0.3 -2.2 87 1036.5 970.1
СЗ 1 25 км 10/10 600 м
[Sc]
0.0 -2.3 84 -2 -2 1036.6 970.3 -0.5 0.2 0.2 1
ЮЗ 1 29 км 10/10 600 м
[Sc]
0.0 -2.6 83 -2 -2 1036.7 970.4
24 км 10/10 600 м
[Sc]
+0.1 -1.9 86 1036.8 970.5
нст 2 35 км 10/10 600 м
[Sc]
+0.5 -3.8 73 -3 -3 1036.6 970.4 0.1
35 км 10/10 600 м
[Sc]
+0.7 -3.9 71 1036.6 970.4
ЮВ 3 30 км 10/10 570 м
[Sc]
+0.4 -3.6 74 -4 -4 1035.9 969.7
ЮВ 4 35 км 10/10 500 м
[Sc]
+0.3 -3.4 76 -5 -5 1034.9 968.8 0.1
ЮВ 3 29 км 9/9 480 м
[Sc]
-0.1 -3.7 77 -5 -5 1034.0 967.8
ЮВ 3 28 км 10/10 450 м
[Sc]
-0.2 -3.5 78 -5 -5 1033.6 967.4
В 2 25 км 9/9 450 м
[Sc]
-0.6 -3.6 80 -4 -4 1032.8 966.6 0.1
ЮВ 3 24 км н/о -1.4 -3.9 83 -6 -6 1032.3 965.9
ЮВ 3 22 км н/о -1.6 -3.9 84 -7 -7 1032.5 966.1
нст 2 26 км 10/10 360 м
[Sc]
-1.7 -4.0 84 -6 -6 1032.2 965.8 +0.9 0.1
24 км 3/3 330 м
[Sc]
-2.5 -4.4 87 1031.7 965.1
В 1 17 км ясно -3.2 -4.5 91 -6 -6 1031.6 964.8
В 1 14 км н/о -4.2 -4.9 95 -7 -7 1031.3 964.3 0.1
6000 м дымка н/о -5.2 -5.8 96 1030.9 963.7
5000 м дымка н/о -4.6 -5.1 96 1030.3 963.3
нст 1 4900 м дымка н/о -5.3 -5.7 97 -8 -8 1029.9 962.7 0.1
СЗ 2 1600 м дымка н/о -4.7 -5.2 96 -9 -9 1029.3 962.3
4900 м дымка н/о -4.2 -4.6 97 1028.4 961.6
нст 1 9000 м дымка н/о -3.3 -3.9 96 -6 -6 1027.6 961.1 0.1
Ю 3 8000 м дымка н/о -3.0 -3.9 93 -8 -8 1027.7 961.2
Местоположение метеостанции Кресин-Крамолин (Чехия): широта 49.58 долгота 15.08 высота над уровнем моря 533 м.
В архиве по умолчанию представлена погода в Кресин-Крамолине за последнюю неделю. Архивные данные за месяц целиком и за предыдущие месяцы, начиная с января 2011 года, Вы можете получить, выбрав интересующий диапазон дат из раскрывающегося списка и нажав кнопку "Найти!".
*Определитесь, кто Вы:
Внимание! Время в таблицах - всемирное. Для получения местного времени необходимо прибавить поправку, которая равна 1 ч.
Смотрите также архив погоды в соседних городах и на ближайших метеорологических станциях:
Партнеры нашего сайта:      
Пояснения к столбцам:
  • Ветер - указаны скорость ветра в м/с - средняя за 10 мин, порывы в срок и между сроками (в фигурных скобках) и направление, откуда дует ветер: С - северный,
  • СВ - северо-восточный, В - восточный, ЮВ - юго-восточный, Ю - южный, ЮЗ - юго-западный, З - западный, СЗ - северо-западный.
  • Видимость - горизонтальная дальность видимости в метрах или километрах. При видимости от 1 до 10 км при отсутствии осадков обычно наблюдается дымка, при ухудшении видимости до 1 км и менее - туман. В сухую погоду видимость может ухудшаться дымом, пылью или мглою.
  • Явления - указаны атмосферные явления, наблюдавшиеся в срок или в последний час перед сроком; фигурными скобками обозначены явления, наблюдавшиеся между сроками (за 1-3 часа до срока); квадратными скобками обозначены град или гололедные отложения с указанием их диаметра в мм.
  • Облачность - указаны через наклонную черту общая и нижняя облачность в баллах и высота нижней границы облаков в метрах; квадратными скобками обозначены формы облаков: Ci - перистые, Cs - перисто-слоистые, Cc - перисто-кучевые, Ac - высококучевые, As - высокослоистые, Sc - слоисто-кучевые, Ns - слоисто-дождевые, Cu - кучевые, Cb - кучево-дождевые. Подробнее классификацию облаков см. в Атласе облаков (PDF).
  • T - Температура воздуха - температура, измеренная на высоте 2 м над землей.
  • Td - Температура точки росы - температура, при понижении до которой содержащийся в воздухе водяной пар достигнет насыщения.
  • f - Относительная влажность воздуха - влажноcть воздуха, измеренная на высоте 2 м над землей.
  • Te - Эффективная температура - температура, которую ощущает одетый по сезону человек в тени. Характеристика душности погоды. При расчете учитывается влияние влажности воздуха и скорости ветра на теплоощущения человека.
  • Tes - Эффективная температура на солнце - температура, которую ощущает человек, с поправкой на солнечный нагрев. Характеристика знойности погоды. Зависит от высоты солнца над горизонтом, облачности и скорости ветра. Ночью, в пасмурную погоду, а также при ветре 12 м/с и более поправка равна нулю.
  • P - Атмосферное давление - приведенное к уровню моря атмосферное давление.
  • Po - Атмосферное давление - измеренное на уровне метеостанции атмосферное давление.
  • Tmin - Минимальная температура - минимум температуры воздуха на высоте 2 м над землей.
  • Tmax - Максимальная температура - максимум температуры воздуха на высоте 2 м над землей.
  • R - Количество осадков - Количество выпавших осадков за период времени, мм. При наведении курсора мыши на число - период времени, за который выпало указанное количество осадков.
  • R24 - Количество осадков - Количество выпавших осадков за 24 часа, мм.
  • S - Снежный покров - Высота снежного покрова, см. При наведении курсора мыши на число - состояние снежного покрова и степень покрытия местности в баллах.